星链-31036 (STARLINK-31036 )

导读 | 星芒AI

STARLINK-31036 是 SpaceX Starlink 卫星互联网项目中的一颗低轨通信卫星。它属于 Starlink 群体部署计划的一部分,旨在为全球用户提供高速、低延迟的互联网服务。该卫星由 SpaceX 制造并发射,运行在约 550 公里的近地轨道上,采用先进的推进和通信技术,支持宽带数据传输。作为 Starlink 网络的重要节点,它有助于扩大覆盖范围,提升网络性能,尤其在偏远和网络基础设施薄弱地区发挥关键作用。

基本信息
目录编号:
58533
目录名称:
STARLINK-31036
国际标识:
2023-192C
轨道中心:
EARTH
卫星名称:
星链-31036
卫星全名:
星链-31036 (STARLINK-31036 )
卫星状态:
在轨 (已飞行742 天)
发射日期:
2023-12-08 UTC
国别 :
美国 (US)
星等 :
--
轨道信息
数据来源 国际轨道数据 AOE轨道数据
星历时间 2025-12-19T13:33:53+0800
14小时前
查看轨道信息
2025-12-17T10:00:00+0800
2天前
查看轨道信息
半长轴 6853.391km 6853.362km
偏心率 0.0001169 0.0001184
轨道倾角 53.160° 53.159°
近地点辐角 85.822° 71.784°
升交点赤经 76.726° 86.703°
平近点角 274.291° 326.114°
近地点 474.452km 474.415km
远地点 476.056km 476.039km
周期 94.106分钟 94.106分钟
每日圈数 15.301872 15.30197
详细信息
固有亮度:
5
最大亮度:
0.3
卫星平台:
Starlink v2.0 mini
覆盖范围:
全球
运营商:
太空探索技术公司
运营商所在国:
美国
制造商(研发单位):
太空探索技术公司
制造商所在国:
美国
使用方式:
暂无
卫星简介
星链(Starlink)计划是由太空探索技术公司(SpaceX)提出的一个巨型低轨卫星互联网星座项目,计划在2019年至2024年间在太空搭建由约1.2万颗卫星组成的“星链”网络,其中1584颗将部署在地球上空550千米处的近地轨道,并从2020年开始工作。该卫星仍在工作。
2D轨道图
3D轨道图
轨道高度分析图
轨道倾角分析图
轨道综合分析图
查看轨道综合分析图